Date String (YYYY-MM-DD hh:mm:ss) UTC,Instrument flags,absolute air pressure of the measurement (hPa),sample flow rate (lpm),inlet stack bypass flow (lpm),air temperature of the measurement (°C),ambient temperature measured by the external sensor (°C),aerosol sample conditioner tube jacket temperature (°C),OPC LED temperature (°C),internal box temperature (°C),relative humidity of the measurement (%),span deviation,mass concentration of particles derived from Lorenz-Mie calculation of OPC scattering (μg/m³),mass concentration of particles derived from Lorenz-Mie calculation of OPC scattering (μg/m³),mass concentration of particles derived from Lorenz-Mie calculation of OPC scattering (μg/m³)
DateTimeUTC,F1_M11,P_M11,Q1_M11,Q2_M11,T1_M11,T2_M11,T3_M11,T4_M11,T5_M11,U1_M11,ZSPAN_M11,X0_M11,X2_M11,X1_M11
2023-06-03 18:00:00,SystemResetWarning,0833.0,5.01,000.00,030.4,028.8,000.0,038.8,031.9,26.3,0000.0,0003.90,0001.15,0000.91
2023-06-03 18:01:00,SystemResetWarning,0833.2,5.01,000.00,030.4,028.8,000.0,038.8,031.9,26.5,0000.0,0004.04,0001.19,0000.91
2023-06-03 18:02:00,SystemResetWarning,0833.0,5.00,000.00,030.4,028.8,000.0,038.8,031.9,26.6,0000.0,0004.09,0001.22,0000.92
2023-06-03 18:03:00,SystemResetWarning,0832.9,5.00,000.00,030.4,028.9,000.0,038.8,031.9,27.1,0000.0,0003.89,0001.25,0000.93
2023-06-03 18:04:00,SystemResetWarning,0832.9,5.00,000.00,030.4,028.9,000.0,038.8,031.9,26.8,0000.0,0002.97,0001.25,0000.93
2023-06-03 18:05:00,SystemResetWarning,0832.9,4.98,000.00,030.4,028.8,000.0,038.8,031.9,26.6,0000.0,0003.03,0001.24,0000.92
2023-06-03 18:06:00,SystemResetWarning,0833.0,5.00,000.00,030.4,028.8,000.0,038.8,031.9,26.7,0000.0,0002.99,0001.21,0000.92
2023-06-03 18:07:00,SystemResetWarning,0833.1,4.99,000.00,030.4,028.8,000.0,038.8,031.9,26.6,0000.0,0003.04,0001.24,0000.93
2023-06-03 18:08:00,SystemResetWarning,0833.1,5.00,000.00,030.4,028.8,000.0,038.8,031.9,26.5,0000.0,0002.67,0001.28,0000.94
2023-06-03 18:09:00,SystemResetWarning,0833.1,5.01,000.00,030.4,028.8,000.0,038.8,031.9,26.3,0000.0,0002.25,0001.29,0000.95
2023-06-03 18:10:00,SystemResetWarning,0833.2,5.00,000.00,030.4,028.8,000.0,038.8,031.9,26.5,0000.0,0002.18,0001.26,0000.95
2023-06-03 18:11:00,SystemResetWarning,0833.2,5.01,000.00,030.4,028.8,000.0,038.8,031.9,26.8,0000.0,0002.16,0001.27,0000.95
2023-06-03 18:12:00,SystemResetWarning,0833.0,5.01,000.00,030.4,028.8,000.0,038.8,031.9,27.0,0000.0,0002.04,0001.23,0000.95
2023-06-03 18:13:00,SystemResetWarning,0833.1,5.00,000.00,030.4,028.8,000.0,038.8,031.9,27.8,0000.0,0002.00,0001.23,0000.96
2023-06-03 18:14:00,SystemResetWarning,0833.0,4.99,000.00,030.4,028.8,000.0,038.8,032.0,27.3,0000.0,0001.97,0001.24,0000.97
2023-06-03 18:15:00,SystemResetWarning,0833.0,5.00,000.00,030.4,028.8,000.0,038.8,032.0,26.6,0000.0,0001.86,0001.23,0000.98
2023-06-03 18:16:00,SystemResetWarning,0833.0,4.99,000.00,030.4,028.8,000.0,038.8,031.9,26.6,0000.0,0001.75,0001.22,0000.99
2023-06-03 18:17:00,SystemResetWarning,0833.0,4.99,000.00,030.4,028.8,000.0,038.8,032.0,27.1,0000.0,0001.70,0001.22,0001.00
2023-06-03 18:18:00,SystemResetWarning,0833.0,5.00,000.00,030.4,028.8,000.0,038.8,032.0,27.8,0000.0,0001.65,0001.22,0001.01
2023-06-03 18:19:00,SystemResetWarning,0833.0,5.00,000.00,030.4,028.8,000.0,038.8,032.0,27.4,0000.0,0001.66,0001.24,0001.04
2023-06-03 18:20:00,SystemResetWarning,0833.0,5.00,000.00,030.4,028.8,000.0,038.8,031.9,27.0,0000.0,0001.79,0001.31,0001.07
2023-06-03 18:21:00,SystemResetWarning,0833.0,5.00,000.00,030.4,028.8,000.0,038.8,031.9,26.7,0000.0,0001.93,0001.38,0001.10
2023-06-03 18:22:00,SystemResetWarning,0833.0,5.00,000.00,030.4,028.8,000.0,038.8,032.0,26.9,0000.0,0002.02,0001.42,0001.13
2023-06-03 18:23:00,SystemResetWarning,0833.0,4.99,000.00,030.4,028.8,000.0,038.8,032.0,26.5,0000.0,0002.07,0001.44,0001.16
2023-06-03 18:24:00,SystemResetWarning,0833.0,5.00,000.00,030.4,028.8,000.0,038.8,031.9,26.7,0000.0,0002.08,0001.46,0001.17
2023-06-03 18:25:00,SystemResetWarning,0833.0,5.00,000.00,030.4,028.8,000.0,038.8,031.9,26.9,0000.0,0001.99,0001.43,0001.17
2023-06-03 18:26:00,SystemResetWarning,0833.4,5.00,000.00,030.4,028.8,000.0,038.8,031.9,26.9,0000.0,0002.02,0001.45,0001.19
2023-06-03 18:27:00,SystemResetWarning,0833.1,5.00,000.00,030.4,028.8,000.0,038.8,031.9,27.0,0000.0,0002.15,0001.50,0001.21
2023-06-03 18:28:00,SystemResetWarning,0833.1,5.00,000.00,030.4,028.8,000.0,038.8,031.9,27.3,0000.0,0002.23,0001.51,0001.22
2023-06-03 18:29:00,SystemResetWarning,0833.2,5.01,000.00,030.4,028.8,000.0,038.8,031.9,27.1,0000.0,0002.29,0001.54,0001.23
2023-06-03 18:30:00,SystemResetWarning,0833.1,4.99,000.00,030.4,028.8,000.0,038.8,031.9,27.2,0000.0,0002.33,0001.57,0001.25
2023-06-03 18:31:00,SystemResetWarning,0833.2,5.00,000.00,030.4,028.8,000.0,038.8,031.9,26.6,0000.0,0002.35,0001.59,0001.27
2023-06-03 18:32:00,SystemResetWarning,0833.1,5.00,000.00,030.4,028.8,000.0,038.8,031.9,26.1,0000.0,0002.25,0001.58,0001.29
2023-06-03 18:33:00,SystemResetWarning,0833.1,5.00,000.00,030.4,028.8,000.0,038.8,031.9,26.0,0000.0,0002.17,0001.57,0001.32
2023-06-03 18:34:00,SystemResetWarning,0833.1,5.01,000.00,030.4,028.8,000.0,038.8,031.9,25.9,0000.0,0002.17,0001.61,0001.37
2023-06-03 18:35:00,SystemResetWarning,0833.1,5.00,000.00,030.4,028.8,000.0,038.8,031.9,25.7,0000.0,0002.28,0001.69,0001.43
2023-06-03 18:36:00,SystemResetWarning,0833.1,5.00,000.00,030.4,028.8,000.0,038.8,031.9,25.1,0000.0,0002.40,0001.79,0001.52
2023-06-03 18:37:00,SystemResetWarning,0833.1,5.00,000.00,030.3,028.8,000.0,038.8,031.9,25.4,0000.0,0002.50,0001.87,0001.61
2023-06-03 18:38:00,SystemResetWarning,0833.2,5.00,000.00,030.3,028.8,000.0,038.8,031.9,26.0,0000.0,0002.58,0001.98,0001.71
2023-06-03 18:39:00,SystemResetWarning,0833.2,5.00,000.00,030.3,028.8,000.0,038.8,031.9,26.3,0000.0,0002.64,0002.07,0001.78
2023-06-03 18:40:00,SystemResetWarning,0833.2,4.99,000.00,030.3,028.8,000.0,038.8,031.9,26.5,0000.0,0002.82,0002.18,0001.86
2023-06-03 18:41:00,SystemResetWarning,0833.2,5.00,000.00,030.3,028.8,000.0,038.8,031.9,26.7,0000.0,0002.98,0002.27,0001.93
2023-06-03 18:42:00,SystemResetWarning,0833.2,5.00,000.00,030.3,028.8,000.0,038.8,031.9,26.6,0000.0,0003.10,0002.33,0002.00
2023-06-03 18:43:00,SystemResetWarning,0833.2,5.00,000.00,030.3,028.8,000.0,038.8,031.9,26.6,0000.0,0003.36,0002.39,0002.05
2023-06-03 18:44:00,SystemResetWarning,0833.1,5.00,000.00,030.3,028.8,000.0,038.8,031.9,26.8,0000.0,0003.46,0002.46,0002.10
2023-06-03 18:45:00,SystemResetWarning,0833.1,5.01,000.00,030.3,028.8,000.0,038.8,031.9,27.0,0000.0,0003.53,0002.50,0002.12
2023-06-03 18:46:00,SystemResetWarning,0833.2,5.00,000.00,030.4,028.8,000.0,038.8,031.9,27.1,0000.0,0003.56,0002.52,0002.11
2023-06-03 18:47:00,SystemResetWarning,0833.2,5.00,000.00,030.4,028.8,000.0,038.8,031.9,27.5,0000.0,0003.57,0002.51,0002.08
2023-06-03 18:48:00,SystemResetWarning,0833.1,5.00,000.00,030.4,028.8,000.0,038.8,031.9,27.6,0000.0,0003.54,0002.48,0002.05
2023-06-03 18:49:00,SystemResetWarning,0833.1,4.99,000.00,030.4,028.8,000.0,038.8,031.9,27.5,0000.0,0003.42,0002.41,0002.00
2023-06-03 18:50:00,SystemResetWarning,0833.1,5.00,000.00,030.4,028.9,000.0,038.8,031.9,27.5,0000.0,0003.37,0002.36,0001.97
2023-06-03 18:51:00,SystemResetWarning,0833.1,5.00,000.00,030.4,028.9,000.0,038.8,031.9,27.5,0000.0,0003.30,0002.29,0001.93
2023-06-03 18:52:00,SystemResetWarning,0833.1,4.99,000.00,030.4,028.9,000.0,038.8,031.9,27.7,0000.0,0003.15,0002.22,0001.90
2023-06-03 18:53:00,SystemResetWarning,0833.1,5.01,000.00,030.4,028.9,000.0,038.8,031.9,28.0,0000.0,0003.00,0002.14,0001.84
2023-06-03 18:54:00,SystemResetWarning,0833.1,4.99,000.00,030.4,028.9,000.0,038.8,031.9,28.1,0000.0,0002.74,0002.09,0001.79
2023-06-03 18:55:00,SystemResetWarning,0833.1,5.00,000.00,030.3,028.8,000.0,038.8,031.9,28.3,0000.0,0002.72,0002.05,0001.73
2023-06-03 18:56:00,SystemResetWarning,0833.1,4.99,000.00,030.3,028.8,000.0,038.8,031.9,28.4,0000.0,0002.67,0002.01,0001.69
2023-06-03 18:57:00,SystemResetWarning,0833.2,4.99,000.00,030.3,028.8,000.0,038.8,031.9,28.1,0000.0,0002.67,0001.98,0001.67
2023-06-03 18:58:00,SystemResetWarning,0833.2,5.00,000.00,030.3,028.8,000.0,038.8,031.9,28.2,0000.0,0003.12,0001.92,0001.64
2023-06-03 18:59:00,SystemResetWarning,0833.2,5.00,000.00,030.4,028.9,000.0,038.8,031.9,28.5,0000.0,0003.13,0001.89,0001.61
